Location: Borov� Hora
(48.6000°N, 19.1333°E)
Time: 15:19:28
(UTC+00:00)

Daily predictions for brighter satellites

Satellite Brightness Start Highest point End
(mag) Time Altitude Azimuth Time Altitude Azimuth Time Altitude Azimuth
Meteor 1-25 Rocket 4.4 15:17:48 10° NNW 15:23:37 87° ENE 15:29:28 10° S
Cosmos 44 Rocket 3.2 15:20:27 10° NW 15:25:12 79° NE 15:29:54 10° SE
Cosmos 2322 Rocket 2.6 15:25:28 10° SW 15:31:03 65° WNW 15:36:42 10° NNE
Cosmos 1844 3.7 15:26:50 10° NNW 15:32:34 70° ENE 15:38:11 10° SE
SL-8 R/B 4.1 15:28:14 10° W 15:33:02 67° SSW 15:37:50 10° ESE
CZ-4 R/B 3.1 15:32:54 10° E 15:34:43 13° ENE 15:36:31 10° NNE
SL-16 R/B 2.9 15:30:03 10° SW 15:35:35 53° NW 15:41:11 10° NNE
Cosmos 1536 4.5 15:34:14 10° NNE 15:36:26 14° ENE 15:38:36 10° E
Cosmos 1812 4.4 15:35:59 10° ESE 15:38:11 15° E 15:40:24 10° NE
SeaSat 1 4.3 15:37:39 10° ENE 15:39:38 12° NNE 15:41:37 10° N
Cosmos 2142 Rocket 4.5 15:36:18 10° N 15:42:38 72° ENE 15:48:52 10° SSE
Cosmos 1707 Rocket 4.0 15:39:57 10° SSE 15:44:07 40° E 15:48:20 10° NNE
USA 215 3.5 15:38:45 10° NE 15:45:15 69° NNW 15:51:44 10° WSW
COSMOS 2455 3.4 15:40:54 10° SW 15:46:50 57° NW 15:52:47 10° NNE
Cosmos 2219 Rocket 2.9 15:42:15 10° S 15:47:15 35° ESE 15:52:19 10° NE
Helios 1A Rocket 4.0 15:43:17 10° S 15:47:18 49° W 15:51:19 10° NNW
CENTAUR R/B 3.4 15:40:29 10° NW 15:48:28 79° SW 15:57:09 10° SSE
Envisat 3.5 15:45:18 10° SE 15:49:56 37° ENE 15:54:36 10° N
Cosmos 2237 4.3 15:47:17 10° SSW 15:53:02 87° WNW 15:58:50 10° NNE
SMAP 3.0 15:48:38 10° SSE 15:53:15 70° ENE 15:57:55 10° N
Cosmos 1844 Rocket 3.1 15:48:17 10° NNW 15:53:50 70° WSW 15:59:22 10° SSE
Lacrosse 5 rocket 3.3 15:52:09 10° SSE 15:54:26 14° SE 15:56:14 11° E
Cosmos 1602 3.7 15:50:50 10° N 15:54:43 88° W 15:58:36 10° S
Cosmos 1331 Rocket 4.3 15:49:52 10° NNW 15:55:06 74° WSW 16:00:21 10° SSE
CORIOLIS 4.2 15:50:08 10° SSE 15:55:30 65° ENE 16:00:55 10° N
NOSS 2-2 (D) 4.2 15:54:39 10° WSW 15:58:12 43° NW 16:02:15 11° NNE
ALOS 4.2 15:55:20 10° SSW 15:59:32 33° W 16:03:46 10° NNW
STARLINK-67 3.1 15:57:25 10° SW 16:00:06 47° SSE 16:01:39 21° E
COSMO-SKYMED 1 3.8 15:58:25 14° NE 16:00:52 22° E 16:04:12 10° SE
ERBS 2.2 15:58:26 10° NW 16:01:47 86° NE 16:05:09 10° SE
Cosmos 332 Rocket 4.2 15:59:05 10° NNW 16:03:57 69° WSW 16:08:45 10° SSE
COSMOS 2428 3.1 15:58:47 10° S 16:04:08 46° ESE 16:09:02 13° NE
SL-4 R/B 2.9 16:01:34 10° SSW 16:04:56 32° SE 16:07:15 18° E
Cosmos 304 Rocket 3.7 16:00:07 10° NNW 16:04:57 73° ENE 16:09:45 10° SSE
Meteor 1-5 Rocket 4.2 15:59:42 10° N 16:05:17 57° ENE 16:10:38 10° SSE
Cosmos 1500 3.7 16:02:17 10° N 16:05:49 36° ENE 16:09:18 10° SE
NOAA 12 4.1 16:01:11 10° SSE 16:06:24 61° ENE 16:11:38 10° N
H-2A R/B 2.5 16:02:44 10° SSE 16:06:27 83° ENE 16:10:10 10° N
Cosmos 1943 Rocket 4.1 16:09:01 10° N 16:10:54 12° NNE 16:11:37 11° NE
Cosmos 1340 3.3 16:07:39 10° NNW 16:11:24 58° W 16:15:06 10° S
FengYun 1-2 T 4.4 16:08:02 10° SE 16:13:15 46° ENE 16:18:28 10° N
Cosmos 1782 3.4 16:09:27 10° SSW 16:13:24 58° WNW 16:17:21 10° N
Shenzhou-11 Module 4.1 16:12:05 10° SSW 16:13:45 15° SSE 16:14:53 12° SE
YAOGAN 1 3.5 16:10:09 10° ESE 16:13:45 26° ENE 16:17:22 10° N
CSL-04 Rocket 4.2 16:10:45 10° SE 16:15:24 33° ENE 16:20:05 10° N
Cosmos 1315 Rocket 2.9 16:11:44 10° SSW 16:15:41 78° WNW 16:19:43 10° N
NOSS 3-4 (A) 3.4 16:16:07 10° SW 16:22:09 89° NW 16:27:20 17° NE
NOSS 3-4 (C) 3.4 16:16:13 10° SW 16:22:15 89° NW 16:27:25 17° NE
Cosmos 1346 Rocket 3.8 16:18:35 10° NNW 16:22:25 49° W 16:26:14 10° S
Cosmos 2180 Rocket 4.5 16:16:08 10° N 16:22:25 89° E 16:28:44 10° S
Meteor 2-6 Rocket 4.0 16:19:16 10° S 16:24:39 84° ESE 16:30:05 10° NNE
Cosmos 2333 4.2 16:19:20 10° SSW 16:25:04 89° WNW 16:30:25 12° NNE
BREEZE-M DEB (TANK) 2.4 16:19:52 10° WNW 16:26:02 76° SSW 16:27:31 26° ESE
ATLAS 3B R/B 3.3 16:19:45 10° NW 16:26:20 59° WSW 16:33:03 10° SSE
Meteor 1-10 Rocket 4.1 16:22:50 10° S 16:28:22 80° E 16:33:59 10° NNE
Cosmos 1733 Rocket 2.9 16:25:18 10° N 16:29:41 80° E 16:34:04 10° SSE
Cosmos 2322 3.9 16:25:04 10° SW 16:30:46 72° WNW 16:36:07 12° NNE
Ariane Rocket 4.3 16:34:30 21° NE 16:34:30 21° NE 16:37:11 10° N
YAOGAN 6 2.4 16:33:52 10° SSE 16:37:20 61° ENE 16:40:52 10° N
Meteor 1-11 Rocket 3.8 16:35:30 10° NNW 16:41:31 90° NE 16:47:29 10° S
Cosmos 2278 Rocket 2.1 16:36:15 10° NNW 16:41:57 75° ENE 16:47:36 10° SSE
RESURS DK-1 2.3 16:38:15 10° SSW 16:42:19 62° ESE 16:43:38 39° NE
Cosmos 1092 Rocket 4.2 16:36:59 10° SSE 16:42:58 47° E 16:48:56 10° NNE
ISS -3.9 16:39:42 10° WNW 16:43:04 77° NNE 16:43:34 61° E
COBE Rocket 4.2 16:39:39 10° N 16:44:16 63° WNW 16:48:51 10° SSW
SKYMED 2 3.5 16:47:07 28° NNE 16:49:18 63° ESE 16:53:36 10° S
Meteor 1-27 Rocket 3.7 16:45:25 10° S 16:51:05 76° E 16:56:56 10° NNE
Cosmos 2360 Rocket 3.6 16:47:09 10° WSW 16:52:18 34° NW 16:57:26 10° NNE
Cosmos 2242 Rocket 3.6 16:47:52 10° S 16:52:19 58° E 16:54:05 34° NNE
ATLAS 5 CENTAUR R/B 2.6 16:50:19 10° SSW 16:51:26 22° SSW 16:51:26 22° SSW
Cosmos 2333 Rocket 2.4 16:50:03 10° SSW 16:55:47 76° WNW 16:59:52 20° NNE
Okean-O 3.5 16:51:33 10° S 16:55:52 50° W 17:00:13 10° NNW
SL-16 R/B 4.1 16:52:46 10° SE 16:53:36 13° SE 16:53:36 13° SE
Cosmos 2369 Rocket 4.0 16:54:39 10° N 16:56:52 16° NNE 16:56:52 16° NNE
Cosmos 2251 Rocket 3.4 16:53:45 10° SSW 16:59:02 70° ESE 17:01:20 34° NE
Cosmos 1900 4.2 16:55:11 10° NNW 17:00:04 63° NE 17:01:16 47° ESE
ATLAS 2AS CENTAUR R/B 3.6 16:52:33 10° WSW 17:00:24 54° NW 17:06:02 20° NNE
BREEZE-M R/B 2.5 16:56:36 10° W 17:01:39 75° N 17:01:47 73° NNE
NOSS 0 Rocket 3.9 16:55:44 10° SSW 17:01:51 65° ESE 17:04:36 34° NE
Cosmos 1862 Rocket 3.8 17:01:05 10° SSW 17:05:24 68° W 17:08:38 18° N
CZ-4 R/B 1.5 17:05:18 10° S 17:09:14 72° WSW 17:13:08 10° NNW
Cosmos 2237 Rocket 2.2 17:04:57 10° S 17:10:33 60° ESE 17:11:44 50° ENE
Exosat Rocket 3.5 17:07:00 10° SSW 17:12:26 82° WNW 17:14:31 36° NNE
Cosmos 1536 3.3 17:09:18 10° NNW 17:13:18 61° W 17:17:15 10° S
Cosmos 1812 3.6 17:09:49 10° SSW 17:13:34 49° WNW 17:15:32 25° NNW
SeaSat 1 3.1 17:17:12 39° NNE 17:17:12 39° NNE 17:20:51 10° NNW
Cosmos 2322 Rocket 4.5 17:12:44 10° WNW 17:16:17 17° NW 17:19:50 10° N
Nadezhda 4 Rocket 4.5 17:19:31 10° SSW 17:25:46 61° WNW 17:32:03 10° N
Cosmos 1553 Rocket 4.1 17:20:08 10° N 17:25:39 51° NE 17:25:39 51° NE
USA 215 3.9 17:25:50 35° NNE 17:27:46 44° N 17:33:52 10° WNW
Cosmos 2219 Rocket 3.1 17:25:45 10° SW 17:31:06 44° NW 17:34:06 24° N
Lacrosse 5 rocket 2.2 17:28:51 10° SW 17:31:54 45° SW 17:31:54 45° SW
Cosmos 1428 Rocket 4.3 17:27:39 10° S 17:33:45 69° E 17:34:25 64° NE
COSMO-SKYMED 1 3.6 17:35:38 30° NNW 17:37:14 44° WNW 17:41:21 10° SW
Cosmos 1908 Rocket 4.4 17:34:24 10° NNW 17:38:41 50° W 17:42:55 10° SSW
Cosmos 2297 3.9 17:34:08 10° NNW 17:38:58 59° N 17:38:58 59° N
Cosmos 1980 3.7 17:34:41 10° SSW 17:40:20 80° WNW 17:41:05 67° N
SL-4 R/B 3.3 17:40:26 10° WSW 17:42:51 37° W 17:42:51 37° W
COSMOS 2428 4.0 17:43:21 10° WSW 17:48:33 36° NW 17:51:04 25° N
Cosmos 2026 Rocket 3.8 17:42:44 10° S 17:48:49 84° W 17:50:36 49° N
YAOGAN 1 4.0 17:45:42 10° SSW 17:49:43 37° W 17:53:45 10° NNW
Cosmos 292 Rocket 4.5 17:50:08 10° NNW 17:54:26 53° W 17:54:26 53° W
Cosmos 1943 Rocket 3.9 17:51:09 10° NNW 17:53:09 21° N 17:53:09 21° N
Cosmos 2344 4.3 18:09:12 10° NW 18:18:07 56° NE 18:18:31 56° NE
SL-16 R/B 4.4 18:34:29 10° SSW 18:35:33 16° SW 18:35:33 16° SW
Cosmos 2333 Rocket 4.3 18:37:02 10° W 18:41:05 19° NW 18:41:54 19° NNW
ATLAS 2AS CENTAUR R/B 4.3 18:46:25 10° WNW 18:53:12 29° NNW 18:53:29 29° N
Cosmos 2237 Rocket 4.1 18:50:05 10° WSW 18:53:35 26° WNW 18:53:35 26° WNW
